Meteo Giornale » Osservazioni meteo Stati Uniti (USA) » Long Beach

ore: 13:53 - Osservazioni Meteo Long Beach
Lat. 33° 48' N Lon. 118° 8' W Alt. 17 metri s.l.m.

sereno

26 °C

Sereno

Temp. 24 Ore

21 °C

29 °C

Sud

14.8 Km/h

Dew point 18 °C

Umidità 61 %

Visibilità  10 Km

Il sole sorge alle ore 06:25

Il sole tramonta alle ore 19:19

Data e Ora Cielo e Fenomeni T °C DP °C Um. % Pres. hPa Vis. km Vento km/h
Oggi h: 13:53 sereno Sereno 26 18 61 1013 10 S 14.8
Oggi h: 12:53 sereno Sereno 27 18 57 1013 10 S/SO 16.7
Oggi h: 11:53 poco_nuvoloso Poco Nuvoloso 26 18 61 1013 10 S 7.4
Oggi h: 10:53 poco_nuvoloso Poco Nuvoloso 26 19 65 1013 10 S 13
Oggi h: 10:01 nuvoloso Nuvoloso 24 18 69 1013 10 N 0
Oggi h: 09:53 molto_nuvoloso Molto Nuvoloso 24 18 69 1013 10 N 0
Oggi h: 08:53 coperto Coperto 24 18 69 1013 10 S/SE 7.4
Oggi h: 07:53 coperto Coperto 23 18 73 1013 10 N 0
Oggi h: 07:25 molto_nuvoloso Molto Nuvoloso 22 18 78 1012 10 N 0
Oggi h: 06:53 nuvoloso Nuvoloso 22 17 73 1012 10 N 5.5
Oggi h: 05:53 poco_nuvoloso Poco Nuvoloso 21 18 82 1011 10 N 5.5
Oggi h: 05:46 nuvoloso Nuvoloso 22 19 83 1011 10 N 5.5
Oggi h: 05:15 molto_nuvoloso Molto Nuvoloso 22 19 83 1011 10 N 5.5
Oggi h: 04:53 sereno Sereno 21 19 88 1011 10 N 5.5
Oggi h: 03:53 sereno Sereno 22 19 83 1011 10 N 5.5
Oggi h: 02:53 sereno Sereno 22 19 83 1011 10 N 0
Oggi h: 01:53 sereno Sereno 23 19 78 1011 10 N 0
Oggi h: 00:53 sereno Sereno 23 18 73 1012 10 N 0
Ieri h: 23:53 sereno Sereno 23 17 68 1011 10 N 0
Ieri h: 22:53 sereno Sereno 23 18 73 1011 10 N 5.5
Ieri h: 21:53 sereno Sereno 23 17 68 1011 10 N/NO 9.3
Ieri h: 20:53 sereno Sereno 24 16 60 1011 10 NO 9.3
Ieri h: 19:53 sereno Sereno 24 16 60 1010 10 O/NO 14.8
Ieri h: 18:53 sereno Sereno 26 19 65 1010 10 O/NO 18.5
Ieri h: 17:53 sereno Sereno 28 19 58 1009 10 O/NO 16.7
Ieri h: 16:53 sereno Sereno 29 19 54 1009 10 S/SO 11.1
Ieri h: 15:53 sereno Sereno 28 19 58 1010 10 S 16.7